TimePST,TemperatureF,Dew PointF,Humidity,Sea Level PressureIn,VisibilityMPH,Wind Direction,Wind SpeedMPH,Gust SpeedMPH,PrecipitationIn,Events,Conditions,WindDirDegrees,DateUTC
12:36 AM,60.8,55.4,82,29.93,2.5,Calm,Calm,-,N/A,,Overcast,0,2012-12-07 08:36:00
12:53 AM,60.1,55.9,86,29.92,2.0,Calm,Calm,-,N/A,,Overcast,0,2012-12-07 08:53:00
1:04 AM,59.0,55.4,88,29.92,1.0,Calm,Calm,-,N/A,,Overcast,0,2012-12-07 09:04:00
1:11 AM,59.0,55.4,88,29.92,0.2,East,3.5,-,N/A,Fog,Fog,100,2012-12-07 09:11:00
1:53 AM,57.0,54.0,89,29.92,0.2,Calm,Calm,-,N/A,Fog,Fog,0,2012-12-07 09:53:00
2:53 AM,57.9,55.0,90,29.91,0.2,Calm,Calm,-,N/A,Fog,Fog,0,2012-12-07 10:53:00
3:53 AM,57.9,55.0,90,29.91,0.2,Calm,Calm,-,N/A,Fog,Fog,0,2012-12-07 11:53:00
4:53 AM,57.9,55.0,90,29.92,0.5,Calm,Calm,-,N/A,Fog,Fog,0,2012-12-07 12:53:00
5:09 AM,57.2,53.6,88,29.92,1.2,East,3.5,-,N/A,,Overcast,80,2012-12-07 13:09:00
5:53 AM,57.9,55.0,90,29.93,1.5,Calm,Calm,-,N/A,,Overcast,0,2012-12-07 13:53:00
6:53 AM,57.0,54.0,89,29.94,1.2,East,3.5,-,N/A,,Overcast,90,2012-12-07 14:53:00
7:04 AM,57.2,53.6,88,29.94,0.5,Calm,Calm,-,N/A,Fog,Fog,0,2012-12-07 15:04:00
7:29 AM,57.2,53.6,88,29.95,1.0,Calm,Calm,-,0.01,,Overcast,0,2012-12-07 15:29:00
7:53 AM,57.0,54.0,89,29.95,1.0,Calm,Calm,-,0.01,,Overcast,0,2012-12-07 15:53:00
8:00 AM,57.2,53.6,88,29.95,0.8,Calm,Calm,-,N/A,,Overcast,0,2012-12-07 16:00:00
8:53 AM,57.9,54.0,87,29.96,1.0,Calm,Calm,-,N/A,,Overcast,0,2012-12-07 16:53:00
9:53 AM,59.0,54.0,83,29.98,1.8,Calm,Calm,-,N/A,,Haze,0,2012-12-07 17:53:00
10:50 AM,60.8,55.4,82,29.97,2.0,Calm,Calm,-,N/A,,Haze,0,2012-12-07 18:50:00
10:53 AM,60.1,55.0,83,29.97,2.0,Calm,Calm,-,N/A,,Haze,0,2012-12-07 18:53:00
11:09 AM,60.8,53.6,77,29.97,2.0,Calm,Calm,-,N/A,,Haze,0,2012-12-07 19:09:00
11:26 AM,62.6,53.6,72,29.96,2.0,Calm,Calm,-,N/A,,Haze,0,2012-12-07 19:26:00
11:53 AM,64.0,55.0,73,29.95,2.5,Calm,Calm,-,N/A,,Haze,0,2012-12-07 19:53:00
12:12 PM,62.6,55.4,77,29.94,2.5,Variable,4.6,-,N/A,,Haze,0,2012-12-07 20:12:00
12:28 PM,64.4,53.6,68,29.94,3.0,Calm,Calm,-,N/A,,Haze,0,2012-12-07 20:28:00
12:53 PM,66.0,55.0,68,29.93,3.0,Variable,3.5,-,N/A,,Haze,0,2012-12-07 20:53:00
1:53 PM,68.0,55.0,63,29.91,3.0,SSW,4.6,-,N/A,,Haze,200,2012-12-07 21:53:00
2:53 PM,69.1,55.0,61,29.90,3.0,Calm,Calm,-,N/A,,Haze,0,2012-12-07 22:53:00
3:19 PM,68.0,55.4,64,29.90,2.5,Calm,Calm,-,N/A,,Haze,0,2012-12-07 23:19:00
3:41 PM,68.0,55.4,64,29.90,3.0,Calm,Calm,-,N/A,,Haze,0,2012-12-07 23:41:00
3:53 PM,68.0,55.0,63,29.90,2.5,Calm,Calm,-,N/A,,Haze,0,2012-12-07 23:53:00
5:07 PM,64.4,55.4,73,29.91,3.0,Calm,Calm,-,N/A,,Haze,0,2012-12-08 01:07:00
5:53 PM,62.1,55.0,78,29.91,3.0,Calm,Calm,-,N/A,,Haze,0,2012-12-08 01:53:00
6:05 PM,62.6,55.4,77,29.91,2.5,Calm,Calm,-,N/A,,Haze,0,2012-12-08 02:05:00
6:15 PM,62.6,55.4,77,29.92,3.0,Calm,Calm,-,N/A,,Haze,0,2012-12-08 02:15:00
6:32 PM,62.6,55.4,77,29.92,2.5,Calm,Calm,-,N/A,,Haze,0,2012-12-08 02:32:00
6:53 PM,61.0,55.0,81,29.92,3.0,Calm,Calm,-,N/A,,Haze,0,2012-12-08 02:53:00
7:00 PM,60.8,55.4,82,29.92,2.5,Calm,Calm,-,N/A,,Haze,0,2012-12-08 03:00:00
7:53 PM,59.0,53.1,81,29.93,2.5,Calm,Calm,-,N/A,,Haze,0,2012-12-08 03:53:00
8:53 PM,57.9,53.1,84,29.94,2.5,Calm,Calm,-,N/A,,Haze,0,2012-12-08 04:53:00
9:53 PM,57.9,53.1,84,29.93,2.0,Calm,Calm,-,N/A,,Haze,0,2012-12-08 05:53:00
10:53 PM,55.9,51.1,84,29.92,2.0,Calm,Calm,-,N/A,,Haze,0,2012-12-08 06:53:00
11:30 PM,55.4,51.8,88,29.92,1.8,Calm,Calm,-,N/A,,Clear,0,2012-12-08 07:30:00
11:53 PM,55.0,51.1,86,29.92,2.0,Calm,Calm,-,N/A,,Clear,0,2012-12-08 07:53:00